Terminal Aerodrome Forecast
Issued by NWS St Louis, MO

Home | Current Version | Previous Version | Text Only | Print | Product List | Glossary On
Versions: 1 2 3 4 5 6 7 8 9 10 11 12 13 14 15 16 17 18 19 20 21 22 23 24 25 26 27 28 29 30 31 32 33
284
FTUS43 KLSX 210537
TAFSTL
TAF
KSTL 210537Z 2106/2212 VRB04KT 6SM -SHRA OVC050
     FM210800 VRB04KT 5SM -SHRA BR OVC040
     FM211200 VRB04KT 4SM BR OVC020
     FM211600 05005KT P6SM BKN030
     FM220000 VRB04KT P6SM BKN040
     FM220600 VRB03KT 5SM BR SKC=

USA.gov is the U.S. government's official web portal to all federal, state and local government web resources and services.